Velovelo
Português Nederlands 日本語 中文
Español English čeština slovenčina
русский italiano polski norsk
français Deutsch svenska عربي
 
 vorige pagina
 Stuur naar een vriend
 Print dit artikel
 ---> La Laurent Desbiens 2009 : Résultats du 163 km

ClassDos.... Nom Prénom ... Cat. C.cTemps...Moy....
1. 496 BAELE Romain he 1 4:06:02 39.75
2. 403 FOULDRIN Antoine hd 1 4:06:02 39.75
3. 497 VENEL Geoffrey hd 2 4:06:02 39.75
4. 88 CHOMBART Maxime hd 3 4:06:03 39.75
5. 49 DESMET Sébastien he 2 4:06:04 39.75
6. 397 THOMASSEY Sébastien he 3 4:06:05 39.74
7. 483 CLERMONT Christophe he 4 4:06:07 39.74
8. 93 PATTYN Karel he 5 4:06:09 39.73
9. 2 VASSEUR Cédric he 6 4:06:24 39.69
10. 98 SOTTIAUX Sébastien he 7 4:09:20 39.23
11. 309 DEWUITE Maximilien hd 4 4:09:33 39.19
12. 488 DEVOS Romain hd 5 4:10:09 39.10
13. 92 VANDERMEERSCHE Adrien he 8 4:10:16 39.08
14. 41 NICOLAS Philippe hg 1 4:10:16 39.08
15. 69 VIANE Sébastien hd 6 4:10:16 39.08
16. 228 LAMONTAGNE Pierre-Marc hg 2 4:10:16 39.08
17. 258 SOHIER Christophe he 9 4:10:22 39.06
18. 24 DELARACE Philippe hf 1 4:10:51 38.99
19. 246 SWERTVAEGHER David hd 7 4:12:14 38.77
20. 372 LERMYTTE Marc he 10 4:12:14 38.77
21. 333 MATHIEU Damien he 11 4:12:16 38.77
22. 72 FIRMIN Thierry hf 2 4:12:17 38.77
23. 224 SCHERNU Christophe he 12 4:12:19 38.76
24. 448 HANSSENS Christophe hf 3 4:12:20 38.76
25. 50 DESMET Christophe he 13 4:12:20 38.76
26. 380 LEBRUN Xavier he 14 4:12:20 38.76
27. 11 PAUMIER Fabrice he 15 4:12:21 38.76
28. 385 DHAUSSY Frédéric hf 4 4:12:28 38.74
29. 29 ODILE Patrick hg 3 4:12:30 38.73
30. 373 WAROT Boris he 16 4:12:36 38.72
31. 77 CARON Antoine hd 8 4:13:30 38.58
32. 42 NICOLAS Sébastien hd 9 4:13:32 38.58
33. 75 WELLENS Eric hf 5 4:13:32 38.57
34. 438 DELHAYE Florent hd 10 4:13:33 38.57
35. 447 DIEPVINTS Yves hf 6 4:13:33 38.57
36. 503 OSSIEUR Michael he 17 4:13:33 38.57
37. 450 MASSIGNAN Sebastien he 18 4:13:33 38.57
38. 362 LEBLANC Gaetan xxx 1 4:13:34 38.57
39. 79 VANDENBROUCKE Jean-Jacques hh 1 4:13:34 38.57
40. 489 VASSEUR Alexandre hd 11 4:13:35 38.57
41. 517 DESWARTE Mickael he 19 4:13:36 38.57
42. 27 DUTAILLY Jacques hg 4 4:13:37 38.56
43. 296 DEQUIDT Julien hd 12 4:13:37 38.56
44. 184 GIGOT Vincent he 20 4:13:38 38.56
45. 199 BOURRY Nicolas hd 13 4:13:55 38.52
46. 266 CHRISTIANS Alex he 21 4:14:59 38.36
47. 505 GOFFART Frederic he 22 4:14:59 38.36
48. 81 GRAS Marc he 23 4:15:04 38.34
49. 352 JUSTIN Fabrice he 24 4:15:04 38.34
50. 273 LACROIX Frederic hf 7 4:15:29 38.28
51. 14 SAYSSET Karine w1 1 4:15:30 38.28
52. 500 DAELMAN Laurent he 25 4:15:41 38.25
53. 256 ROBERT Simon hd 14 4:15:43 38.25
54. 336 GUILBERT Charles he 26 4:16:00 38.20
55. 305 PILVESSE Vincent he 27 4:16:00 38.20
56. 105 LEROY Christophe he 28 4:16:10 38.18
57. 476 BAUDSON David he 29 4:16:14 38.17
57. 10 RICHIR Nicolas he 29 4:16:14 38.17
59. 78 WILLIATTE Hervé hg 5 4:16:14 38.17
60. 396 TABARY Arduin hd 15 4:16:15 38.17
61. 239 FARRUGIO Jean-Pierre hg 6 4:16:15 38.17
62. 3 DELMEE Gregory he 31 4:16:16 38.17
63. 466 GUILLEMOT Cyrille he 32 4:16:16 38.17
64. 133 DJENNADI Romain he 33 4:16:16 38.16
65. 238 BREUVART Martin he 34 4:16:16 38.16
66. 177 LELEU Geoffroy he 35 4:16:17 38.16
67. 96 FLOUR Jean-Baptiste hd 16 4:16:17 38.16
68. 178 DURAND Didier hf 8 4:16:19 38.16
69. 306 VAN CANEGHEM Wouter hd 17 4:16:20 38.16
70. 351 LEQUIEN Stéphane he 36 4:16:23 38.15
70. 322 SALLEN Julien hd 18 4:16:23 38.15
72. 279 NOËL François hd 19 4:16:24 38.14
73. 411 BRUSSELLE Dominique hf 9 4:16:25 38.14
74. 293 BARDOT-BRARD Matthieu hd 20 4:16:25 38.14
75. 378 JACOB Nicolas hd 21 4:16:25 38.14
76. 490 FLINUIS Anthony hd 22 4:16:28 38.14
77. 510 QUIEVRE Stephane he 37 4:16:28 38.13
78. 418 MULLIE Sebastien he 38 4:16:28 38.13
79. 211 BUISINE Arnaud he 39 4:16:28 38.13
80. 324 FREDRIKS Thierry hf 10 4:16:29 38.13
81. 38 BOUDRY Sylvain he 40 4:16:31 38.13
82. 90 HURET Nicolas he 41 4:16:38 38.11
83. 91 IMMOUNI Abdel-Aziz he 42 4:16:40 38.10
84. 12 DELANDE Fabien he 43 4:16:58 38.06
85. 282 KLIS Didier hf 11 4:18:31 37.83
86. 493 DUFOUR Bertrand he 44 4:18:32 37.83
87. 61 GEOFFROY Jean-François hh 2 4:18:32 37.83
88. 419 JOLLANT Olivier he 45 4:20:17 37.57
89. 233 DEBERGH Steven he 46 4:21:04 37.46
90. 320 DEBAS Laurent he 47 4:21:04 37.46
91. 19 SOENEN Christophe hf 12 4:21:05 37.46
92. 462 WECHSLER Pierre he 48 4:21:07 37.46
93. 89 COODEVILLE Marc hf 13 4:21:08 37.45
94. 399 RIETJENS Dirk hg 7 4:21:08 37.45
95. 331 BOURDON Miguel hd 23 4:21:09 37.45
96. 25 PONCHEL Richard hg 8 4:21:10 37.45
97. 26 DUTAILLY Yannick he 49 4:21:10 37.45
98. 9 LESAGE Xavier hf 14 4:21:11 37.45
99. 167 DUQUESNOY Eric he 50 4:21:11 37.45
99. 145 ROUSSEL Pascal hf 15 4:21:11 37.45
101. 18 BONNAY Jerome he 51 4:21:11 37.45
102. 391 VANSPEYBROECK Olivier he 52 4:21:11 37.45
103. 252 DERACHE Stéphane he 53 4:21:14 37.44
104. 172 LESUR Cédric he 54 4:21:17 37.43
105. 189 RANSON Jean-Hervé hf 16 4:21:19 37.43
106. 295 AGNERAY Aurélien hd 24 4:21:21 37.42
107. 465 LEBON Olivier hf 17 4:21:24 37.42
108. 221 EVERAERT Michel hf 18 4:21:26 37.41
109. 342 DARQUES Bertrand hf 19 4:21:28 37.41
110. 284 DEMARET Hervé hf 20 4:21:29 37.40
111. 412 ROUSSEAU Arnaud he 55 4:22:12 37.30
112. 478 LHEUREUX Daniel he 56 4:22:27 37.27
113. 420 BARTLEMA Menno hf 21 4:22:35 37.25
114. 389 DELPOUVE Olivier hf 22 4:22:40 37.23
115. 433 LUMAIRE Freddy hg 9 4:23:06 37.17
116. 444 LESWE Ludovic he 57 4:23:06 37.17
117. 217 BIZIERES Michel hh 3 4:23:06 37.17
118. 55 GOURDIN Christian hf 23 4:23:08 37.17
119. 301 MAN Karel hf 24 4:23:08 37.17
120. 280 MATURA Yannick he 58 4:23:23 37.13
121. 111 VOURCH André hf 25 4:24:06 37.03
122. 97 HELLEBOIS Alain hf 26 4:24:06 37.03
123. 108 MAHÉ Gilles hf 27 4:24:10 37.02
124. 278 DEWITTE Manuel hf 28 4:24:11 37.02
125. 325 DUBART Andre hg 10 4:24:16 37.01
126. 492 ROUTIER Guillaume hd 25 4:24:18 37.01
127. 142 LLORENS Alexandre he 59 4:25:07 36.89
128. 158 HILL Jonathan he 60 4:25:42 36.81
129. 253 WOZNIAK Pascal hf 29 4:25:49 36.79
130. 475 GILLOT Vincent hf 30 4:25:50 36.79
131. 435 DUQUESNE Denis hf 31 4:26:08 36.75
132. 494 BAILLEUL Thomas hd 26 4:26:58 36.63
133. 313 GHESTEM Didier hf 32 4:27:00 36.63
134. 453 LACROIX Jean-Christophe he 61 4:27:16 36.59
135. 237 MOORE Robert hd 27 4:27:45 36.53
136. 395 WIM Cats he 62 4:27:51 36.51
137. 287 BRUET Jean-Claude hf 33 4:27:52 36.51
138. 387 VAILLIERE Sébastien he 63 4:28:14 36.46
139. 323 MOREELS Olivier he 64 4:28:15 36.46
140. 43 ANDRE Stéphane hf 34 4:28:15 36.46
141. 73 GLAUDEL Jean-Eric hf 35 4:28:17 36.45
142. 506 DEHON Didier he 65 4:29:41 36.27
143. 319 OSTYN Dieter hd 28 4:30:18 36.18
144. 473 DACQUET Christophe he 66 4:30:19 36.18
145. 350 DENIS Ludovic he 67 4:30:20 36.18
146. 175 BEIRNAERT Eddy hg 11 4:30:40 36.13
147. 285 VUYGE Philippe he 68 4:30:40 36.13
148. 209 PILON Laurent he 69 4:30:40 36.13
149. 212 MOREL Laurent he 70 4:31:18 36.05
150. 234 DEBERGH Dirk hg 12 4:31:30 36.02
151. 487 MALLOTTEAUX Fabian hf 36 4:31:55 35.97
152. 346 COUTURE Christophe hf 37 4:31:55 35.97
153. 33 BRADEFER Géry hd 29 4:31:55 35.97
154. 481 THOMAS Didier hf 38 4:31:56 35.97
155. 230 MARION Christophe he 71 4:33:00 35.83
156. 121 FEYTONS Patrick hh 4 4:33:01 35.82
157. 166 VERQUAIN Pascal he 72 4:33:01 35.82
158. 139 IINO Ken he 73 4:33:01 35.82
159. 268 LANTHOEN Thomas he 74 4:33:01 35.82
160. 68 TACCOEN Jean-Michel hf 39 4:33:03 35.82
161. 100 CAILLOT Raymond hg 13 4:33:03 35.82
162. 480 MAHOTTEAUX Lucian hh 5 4:33:06 35.81
163. 520 GALLEZ Gregory he 75 4:33:09 35.81
164. 522 GALLEZ Olivier he 76 4:33:09 35.81
165. 339 PRUVOST Clément hd 30 4:33:10 35.80
166. 357 COCQUET Laurent he 77 4:33:11 35.80
167. 374 COSTARD Jean Marc hg 14 4:33:12 35.80
168. 464 SOCKEEL Remy hd 31 4:33:12 35.80
169. 103 SAILLARD Bruno hf 40 4:33:12 35.80
170. 132 LAGACHE Gregory he 78 4:33:13 35.80
171. 456 DELANNOY Christophe he 79 4:33:13 35.80
172. 467 BOEYAERT Ludo he 80 4:33:15 35.79
173. 20 LAMBERT Jerôme hd 32 4:33:22 35.78
174. 458 JANASZEK Frederic hf 41 4:33:22 35.78
175. 455 DERIVAUX Charles hf 42 4:33:50 35.72
176. 193 FEYS Steven he 81 4:33:58 35.70
177. 460 DERREVEAUX Christophe he 82 4:33:58 35.70
178. 383 GOUACHE Nicolas he 83 4:33:59 35.70
179. 370 HUGUET Michel hg 15 4:33:59 35.70
180. 486 GERMANPREZ David he 84 4:34:00 35.69
181. 413 DUQUENOY Bruno he 85 4:34:04 35.69
182. 361 PREZ Guillaume xxx 2 4:34:04 35.68
183. 300 CAILLIAU Jeroen hd 33 4:34:05 35.68
184. 106 WALLON Jean-Philippe hg 16 4:34:05 35.68
185. 400 DELANGLET Didier hg 17 4:34:05 35.68
186. 251 MAMETZ Sébastien he 86 4:34:05 35.68
187. 154 DANRÉ Benoît hf 43 4:34:07 35.68
188. 82 TRINEL Régis hg 18 4:34:09 35.68
189. 343 DEMEULEMEESTER Bernard hf 44 4:34:10 35.67
190. 163 HANOT Michel hf 45 4:34:11 35.67
191. 288 MARIANI Aldo hf 46 4:34:12 35.67
192. 117 SIMER Philippe hg 19 4:34:13 35.67
193. 513 LOMBARDO Bruno he 87 4:34:13 35.67
194. 125 LAMIRE Gérard hg 20 4:34:13 35.67
195. 512 MALENGRAUX Jean-Louis hg 21 4:34:13 35.67
196. 144 LINQUE Bruno hf 47 4:34:14 35.67
197. 402 VILLEROI Dany hf 48 4:34:15 35.66
198. 498 SEYNS Pierter hd 34 4:34:15 35.66
199. 141 MERAT Pascal hf 49 4:34:16 35.66
200. 244 ROBILLART David he 88 4:34:17 35.66
201. 367 LANFRANCHI Sebastien he 89 4:34:19 35.65
202. 272 GARBEZ Laurent he 90 4:34:20 35.65
203. 345 TAHORET Jérôme hf 50 4:34:23 35.64
204. 398 JENNES Dirk hf 51 4:35:55 35.45
205. 388 CASSETTE Philippe hf 52 4:35:55 35.45
206. 338 JOZWIAK Philippe he 91 4:35:56 35.45
207. 443 LAMERAND Philippe he 92 4:35:59 35.44
208. 7 SOUBRIER Stéphane hf 53 4:36:00 35.44
209. 138 MARSTON Richard hf 54 4:36:00 35.44
210. 474 LEGRAND Laurent hf 55 4:36:01 35.43
211. 436 VERVENNE Antonie hd 35 4:36:03 35.43
212. 74 FLAGOTHIER Mélissa w1 2 4:36:04 35.43
213. 330 LEMAITRE Mickaël he 93 4:37:01 35.31
214. 242 KOWALSKI Benoit he 94 4:37:31 35.24
215. 265 LEBOUGRE Jean-Michel hg 22 4:37:48 35.21
216. 381 HERMAND Pierre hh 6 4:37:48 35.21
217. 8 DELVART Bernard hh 7 4:37:49 35.20
218. 203 DEWASTE Ghislain hg 23 4:37:51 35.20
219. 202 DEWASTE Jean-Michel hg 24 4:37:51 35.20
220. 201 RAUX Frédéric hf 56 4:37:51 35.20
221. 83 GRAZZI Jimmy he 95 4:37:52 35.20
222. 270 MOTTE François he 96 4:37:52 35.20
223. 267 MOREAU Aurélien hd 36 4:37:53 35.19
224. 406 MEYNARDIE David he 97 4:37:55 35.19
225. 198 BOURRY Bernard hg 25 4:37:58 35.19
226. 439 FLAN Guillaume he 98 4:37:59 35.18
227. 485 PATIN Eric hf 57 4:38:00 35.18
228. 229 DEHOUPE Claude hg 26 4:38:06 35.17
229. 371 ABEELE Michael he 99 4:38:10 35.16
230. 84 GILLIS Vincent hf 58 4:39:35 34.98
231. 375 LEPRETRE David he 100 4:39:35 34.98
232. 484 STEVENARD Philippe hf 59 4:39:36 34.98
233. 482 LEFEBVRE Thierry hf 60 4:39:42 34.97
234. 51 GHESTEM André hg 27 4:39:58 34.93
235. 457 PICQUENDAR Damien hg 28 4:39:59 34.93
236. 393 EBERWEISER Werner hf 61 4:39:59 34.93
237. 53 MARTEEL Hervé hg 29 4:40:02 34.93
238. 240 CARTIGNY Christophe hf 62 4:40:02 34.93
239. 432 VANRYSSEL David he 101 4:40:02 34.93
240. 507 MATTINA Parnelo hf 63 4:40:07 34.92
241. 404 DMYTROW Nicolas he 102 4:40:14 34.90
242. 463 BERTOLI Renaud hd 37 4:40:17 34.90
243. 445 PIEDVACHE Florian hd 38 4:43:11 34.54
244. 446 FLOUR Guillaume he 103 4:43:11 34.54
245. 524 HILTON Will hd 39 4:43:11 34.54
246. 454 DEBLAERE Jean-Christophe hf 64 4:43:21 34.52
247. 363 PIEDANNA Patrick xxx 3 4:43:45 34.47
248. 157 VAN DEN BRANDE Bart he 104 4:44:07 34.42
249. 291 BOUQUET Patrice he 105 4:44:53 34.33
250. 269 DUBOIS Olivier hf 65 4:44:55 34.33
251. 344 VAN RIJCKEGHEM Wim hf 66 4:45:33 34.25
252. 169 LE GOUSSE Eric hf 67 4:46:13 34.17
253. 261 BOISSADIE Jean hh 8 4:46:19 34.16
254. 423 BOCQUET Jean-Luc hh 9 4:46:20 34.16
255. 294 SIBILE Michel hg 30 4:46:24 34.15
256. 179 COLUCCI Alain hg 31 4:46:24 34.15
257. 471 MACKE Alain hf 68 4:46:25 34.15
258. 332 DELVA Jackie hh 10 4:46:25 34.15
259. 147 CORROYER Pascal hf 69 4:46:26 34.14
260. 495 LOUIS Damien he 106 4:46:30 34.14
261. 176 LEBRUN Christian hg 32 4:46:30 34.14
262. 360 DAUTREMER Francky he 107 4:46:30 34.14
263. 310 LACROIX Frederic he 108 4:47:05 34.07
264. 124 WERY Richard hh 11 4:47:11 34.06
265. 341 DERESMES Patrick hf 70 4:47:12 34.05
266. 80 SOURGET Laurent hf 71 4:47:12 34.05
267. 461 TABART Jean-Michel hf 72 4:47:13 34.05
268. 101 WESTELYNCK Stéphane hf 73 4:47:20 34.04
269. 431 DESUMONT Jean-Jacques hg 33 4:47:36 34.01
270. 227 VILLETTE Hervé hg 34 4:48:05 33.95
271. 95 MARCINIAK Fabrice he 109 4:48:10 33.94
272. 220 MEURIN Patrice hf 74 4:48:20 33.92
273. 297 WAMBRE Franck he 110 4:48:25 33.91
274. 523 FRECESTONE ? Graene hf 75 4:48:25 33.91
275. 130 TRAULET Laurent hf 76 4:48:30 33.90
276. 104 SANSON Laurent hf 77 4:48:32 33.90
277. 140 SMITH Nathan he 111 4:49:43 33.76
278. 160 BISHOP Tom hd 40 4:49:45 33.75
279. 185 BAUDOUIN Eric hf 78 4:50:20 33.69
280. 366 BECQUET Denis hg 35 4:50:20 33.69
281. 382 JANURA Jean hg 36 4:50:21 33.69
282. 519 MAJOIS Rodrigue he 112 4:50:21 33.68
283. 146 LEMERCIER Olivier he 113 4:50:27 33.67
284. 182 BUNIET Christophe hf 79 4:50:29 33.67
285. 194 FERNANDEZ Ricardo he 114 4:50:33 33.66
286. 340 PRUVOST Benoît he 115 4:50:34 33.66
287. 208 WAUTERS Gert he 116 4:50:49 33.63
288. 222 LECOUTRE Pascal he 117 4:51:01 33.61
289. 236 RICHARD Lam hf 80 4:52:24 33.45
290. 54 TAHON Denis he 118 4:52:26 33.44
291. 128 DEBONNAIRE Xavier hf 81 4:52:26 33.44
292. 123 LETAILLEUR Christian hf 82 4:52:26 33.44
293. 262 MINTROT Jacques hh 12 4:52:27 33.44
294. 4 CAPIAUX Dominique hg 37 4:52:27 33.44
295. 235 RICHARD Knight hf 83 4:52:27 33.44
296. 127 CHOMBART Jean-Louis hf 84 4:52:28 33.44
297. 56 DARCY Pascal hf 85 4:52:29 33.44
298. 354 FACHE Philippe hg 38 4:52:29 33.44
299. 515 MATTINA Giovanni hf 86 4:52:33 33.43
300. 441 MARTIN Mehdi he 119 4:52:33 33.43
300. 502 VAN DE VORST Bruno hg 39 4:52:33 33.43
302. 479 DANGLETEME Cyril he 120 4:52:36 33.43
303. 407 VANDAMME Jean Michel hh 13 4:53:26 33.33
304. 384 LEULIET Henri hf 87 4:53:28 33.33
305. 34 CAVRON Jean-Philippe he 121 4:53:45 33.30
306. 281 COCQUET Étienne he 122 4:53:45 33.29
307. 135 DUBOIS Jean-Paul hh 14 4:53:45 33.29
308. 107 BOCQUET Mathias he 123 4:53:50 33.29
309. 47 VANDENBON Guy hf 88 4:53:52 33.28
310. 116 BOBEAU Michel hg 40 4:53:53 33.28
311. 156 MERLEVEDE Frédéric hf 89 4:53:53 33.28
312. 52 GHESTEM Pierre hg 41 4:53:58 33.27
313. 186 BAUCHET Laurent hf 90 4:54:03 33.26
314. 165 WOSTYN Sébastien he 124 4:56:34 32.98
315. 66 LAGADEC Jerome hf 91 4:56:41 32.96
316. 21 BAILLET Karine w1 3 4:57:46 32.84
317. 405 COUSIN Jean-Gabriel he 125 4:57:48 32.84
318. 440 FRULEUX Laurent he 126 4:57:50 32.84
319. 67 LECOMTE Christophe he 127 4:57:55 32.83
320. 161 MAERTENS Robert hg 42 4:57:57 32.83
321. 192 THOMAS David hf 92 4:57:57 32.83
322. 48 JOLY Valérie w2 1 4:57:57 32.82
323. 174 MAERTENS Bob hd 41 4:57:58 32.82
324. 23 COLUCCI Michelle w3 1 4:57:58 32.82
325. 168 BEDAGUE Emmanuel hf 93 4:57:59 32.82
326. 390 DUPONT Gilles hg 43 4:57:59 32.82
327. 162 CHAMPION Gregory he 128 4:58:06 32.81
328. 337 CRETON Serge hh 15 4:58:07 32.81
329. 65 LAGADEC Jean-Yves hf 94 4:58:07 32.81
330. 259 FRADIN Thierry hf 95 4:58:09 32.80
331. 277 GHESQUIERE Jean-Rene hg 44 4:58:09 32.80
332. 181 DEZETAVE Jeannick hg 45 4:58:36 32.75
333. 62 MUZET Adrien hd 42 4:59:29 32.66
334. 151 GORNY Eric hf 96 5:00:16 32.57
335. 254 CRESSANT Jacques hf 97 5:00:34 32.54
336. 368 BATTEL Klaas hd 43 5:00:43 32.52
337. 477 SCHEURWEGEN Eric hf 98 5:00:49 32.51
338. 518 GYDE Raynald he 129 5:00:53 32.51
339. 60 MAMPAEY Philippe hg 46 5:00:55 32.50
340. 499 MISIOLEK Stephane he 130 5:00:55 32.50
341. 509 TUTIN Jean-Claude hg 47 5:00:57 32.50
342. 451 ROBIDEZ Hugues hf 99 5:00:57 32.50
343. 231 DUCHEMIN Bernard hg 48 5:01:00 32.49
344. 129 CAILLOT François he 131 5:01:24 32.45
345. 315 VAN BOCXLAER Dirk hf 100 5:02:18 32.35
346. 307 DELFORTERIE Arnaud he 132 5:02:27 32.34
347. 442 NOEL Herve hh 16 5:02:31 32.33
348. 216 DESAL Jan hf 101 5:03:06 32.27
349. 369 BATTEL Niels hd 44 5:03:11 32.26
350. 247 BRINKMAN Inge w2 2 5:03:14 32.25
351. 248 TUYPENS Christian hf 102 5:03:14 32.25
352. 143 MILHAMONT Denis hd 45 5:03:17 32.25
353. 364 VAN ACKER Thierry hg 49 5:03:18 32.25
354. 200 LHOMME Michel hh 17 5:03:20 32.24
355. 214 RIBEIRO Alain hf 103 5:04:25 32.13
356. 110 LEBER Philippe hf 104 5:05:30 32.01
357. 225 RAVAGNI Lionel hf 105 5:05:31 32.01
358. 430 CORREIA Thomas hf 106 5:07:08 31.84
359. 170 LARIVIERE Freddy hg 50 5:07:13 31.83
360. 45 BÉZILLE José hf 107 5:07:16 31.83
361. 188 BOULOGNE Eric hf 108 5:08:24 31.71
362. 164 DUBUISSON Romain hd 46 5:08:24 31.71
363. 173 LEROUGE Serge he 133 5:09:30 31.60
364. 171 LYN Fernando hh 18 5:09:34 31.59
365. 525 CORNET Philippe hf 109 5:09:35 31.59
366. 126 LEMESRE Pierre hd 47 5:09:40 31.58
367. 311 COUZIN Ludovic he 134 5:10:44 31.47
368. 317 MAGERMAN Morgan he 135 5:11:20 31.41
369. 276 VANDENHAUTE Wim he 136 5:11:20 31.41
370. 155 DINO Besirevic he 137 5:11:26 31.40
371. 286 BAILLIEUL Loick hd 48 5:11:36 31.39
372. 64 FRICARD Christophe hf 110 5:12:30 31.30
373. 349 GONDEK Serge hh 19 5:12:34 31.29
374. 521 PHILLIPS Grant ? hf 111 5:13:26 31.20
375. 377 MESSIANT Frederic hf 112 5:14:00 31.15
376. 356 CALLOT Bertrand hf 113 5:14:05 31.14
377. 334 VANOVERBERGHE Nicolas he 138 5:14:30 31.10
378. 290 FAVIER Freddy hd 49 5:15:36 30.99
379. 449 COENE Alain hh 20 5:15:41 30.98
380. 379 BOURDOT Yann he 139 5:15:59 30.95
381. 148 FRUCHART Olivier he 140 5:17:07 30.84
382. 421 DUBOIS Yannick he 141 5:17:24 30.81
383. 137 DESSEREY Jocelyne w3 2 5:17:26 30.81
384. 136 BEAUDOIN Michel hg 51 5:17:29 30.81
385. 86 SAMAILLE Benoît hg 52 5:18:48 30.68
386. 63 LAGACHE Hervé hf 114 5:18:49 30.68
387. 292 DEFOORT Thierry he 142 5:18:50 30.68
388. 87 COUDRAIS Joël hh 21 5:18:51 30.67
389. 85 DERAED Frédéric hf 115 5:18:51 30.67
390. 410 ROBIN Jacques hg 53 5:18:52 30.67
391. 409 ROBIN Hugo hd 50 5:18:53 30.67
392. 213 DEDEUS Fernand hg 54 5:18:54 30.67
393. 355 LEROY Pascal hh 22 5:18:55 30.67
394. 271 DELAIRE Dominique hg 55 5:18:56 30.67
395. 422 SIMON Claude hg 56 5:19:02 30.66
396. 359 LEMAIRE Geoffrey hd 51 5:19:15 30.63
397. 250 CHRÉTIEN Bernard hg 57 5:20:14 30.54
398. 304 NOLETTE Guillaume he 143 5:20:22 30.53
399. 328 HERON Jean-Charles hd 52 5:24:04 30.18
400. 109 PUCHOIS Stéphane hg 58 5:27:44 29.84
401. 335 MICHEL David he 144 5:30:32 29.59
402. 274 FOSSET Jacky hf 116 5:31:15 29.52
403. 35 SAPELIER Grégory he 145 5:35:44 29.13
404. 152 LAURENT Gilles hf 117 5:35:44 29.13
405. 264 COUROUBLE Yves hg 59 5:35:45 29.13
406. 232 COLEAUX Michel hf 118 5:37:13 29.00
407. 255 LESAMBER Ludovic he 146 5:37:14 29.00
408. 299 DAUW Pieter hd 53 5:40:18 28.74
409. 318 DAUW Steven he 147 5:40:19 28.74
410. 321 SALLEN Francis hf 119 5:40:21 28.74
411. 180 TURCK Reynald hd 54 5:40:22 28.73
412. 32 COURIER Gilles he 148 5:40:27 28.73
413. 348 MALHEÜDE Marc hf 120 5:44:19 28.40
414. 347 DESPREZ Dominique hf 121 5:44:19 28.40
415. 114 PERRIN Christian hg 60 5:44:20 28.40
416. 316 DESSAINT Tony he 149 5:44:28 28.39
417. 408 FUMERON Emmanuel hf 122 5:46:10 28.25
418. 99 BONNET Pierre he 150 5:46:10 28.25
419. 386 BLIGNY Patrick hg 61 5:46:13 28.25
420. 102 DACHICOURT Fabrice hf 123 5:47:26 28.15
421. 183 HAZARD Jean Jacques hg 62 5:49:05 28.02
422. 113 ANSANAY Didier hg 63 5:50:26 27.91
423. 263 HAINE Philippe hg 64 5:50:39 27.89
424. 260 MARFAUX Bernard hh 23 5:50:44 27.89
425. 219 DEBLAUWE Bart hf 124 5:50:46 27.88
426. 120 LACROIX Jean-Pierre hg 65 5:53:05 27.70
427. 434 ROBILLARD Frederic hf 125 5:54:12 27.61
428. 275 MITEV Pierre hg 66 5:55:49 27.49
429. 511 LLORENS Rodrigue he 151 5:55:53 27.48
430. 226 DAVID Martine w3 3 5:59:56 27.17
431. 223 BOUCHER Eric hg 67 5:59:56 27.17
432. 134 CROQUETTE Ludovic he 152 6:02:19 26.99
433. 257 DELETANG Guy hh 24 6:02:31 26.98
434. 376 VOLLEKINDT Philippe hg 68 6:03:36 26.90
435. 516 PICCA Eric hf 126 6:05:02 26.79
436. 205 BUSCHINSKI Patrice hg 69 6:07:26 26.62
437. 472 BEGORRE Dominique hf 127 6:07:28 26.62
438. 190 DEVRED Alain hg 70 6:07:30 26.61
439. 215 TARAMIMI Claude hg 71 6:07:33 26.61
440. 206 DELCENSERIE Jean-Luc hg 72 6:07:37 26.60
441. 204 BELGUISE Hervé hg 73 6:07:39 26.60
442. 159 NEUTRE Bertrand hf 128 6:08:21 26.55
443. 303 LAGULLE Hervè hf 129 6:08:38 26.53
444. 392 BARBREAU Yves hg 74 6:08:41 26.53
445. 119 HENRY Jean-Jacques hg 75 6:14:26 26.12

Haut 









Haut  
 Privé-site   Auteursrecht-Copyright : klik hier om te lezen !